Wind_Speed
15 15 15 14 14 14 13 12 11 10 10 9 6 4 2 2 4 6 7 8 8 9 9 9 9 8 8 7 7 7 7 6 6 7 7 7 7 7 7 7 7 8 7
16 15 15 15 14 14 13 13 12 11 10 9 7 5 3 3 3 4 6 7 8 8 10 10 10 10 9 8 8 8 8 8 8 8 8 9 8 8 8 8 9 9 9
16 15 15 15 14 13 13 13 12 11 10 9 8 7 5 4 4 5 6 7 8 9 10 10 11 11 11 9 9 9 9 9 9 9 9 9 10 10 10 10 10 10 10
17 15 14 14 14 13 13 13 13 12 11 10 8 7 6 5 5 5 6 8 9 10 10 11 11 11 11 10 10 10 10 10 10 10 10 10 10 10 11 11 11 11 11
17 16 15 14 13 13 13 13 13 13 12 11 10 8 7 5 6 6 7 8 10 10 11 11 12 12 11 11 11 11 11 11 11 10 11 11 11 11 11 11 12 12 13
17 16 14 13 13 13 13 14 13 12 12 11 10 9 8 6 5 5 6 7 8 9 10 11 12 12 12 12 12 12 12 12 12 11 11 12 13 13 13 13 13 13 14
16 14 13 13 12 12 12 13 13 13 12 11 11 10 8 7 6 5 5 7 8 9 11 12 12 13 13 13 13 13 14 13 13 13 13 13 14 14 15 15 14 15 14
14 13 14 13 12 12 12 13 13 13 13 12 12 10 9 7 6 6 6 7 7 8 10 12 13 13 14 14 14 14 14 14 14 14 14 14 14 14 15 15 15 15 16
15 14 13 14 13 12 12 13 13 13 13 13 12 11 10 9 7 6 6 7 8 8 9 11 13 14 14 14 14 15 15 15 15 15 15 14 14 15 15 16 16 16 16
15 13 13 13 13 12 12 12 13 13 13 13 12 11 10 9 8 7 6 6 7 7 9 10 11 13 14 14 15 15 16 15 15 15 15 15 16 16 16 17 17 17 18
15 14 13 13 12 12 12 12 13 13 13 13 12 12 11 9 9 9 7 6 7 7 8 9 11 12 13 14 14 15 15 15 16 17 17 17 17 17 18 18 18 19 19
16 15 13 13 13 13 12 12 13 13 13 13 13 12 11 10 9 9 8 7 8 8 9 9 11 12 13 14 15 15 16 16 17 17 18 19 19 19 19 20 20 20 20
16 15 14 14 14 13 13 12 13 13 14 14 14 13 12 11 11 10 9 9 9 10 10 11 11 12 13 13 15 17 18 18 18 18 18 19 19 20 20 21 21 21 22
16 16 15 14 14 14 13 13 13 14 14 15 14 14 14 13 13 12 11 10 11 12 12 12 13 13 14 15 16 17 17 18 19 19 19 20 20 20 21 21 22 22 22
18 16 16 15 14 14 15 15 14 15 15 15 15 15 15 14 14 14 13 13 13 13 13 13 13 14 15 15 16 17 18 18 19 20 21 21 21 21 21 21 22 23 23
19 18 17 16 16 16 16 16 16 16 17 17 16 16 15 15 15 15 15 14 13 14 14 15 14 15 15 16 17 18 17 18 19 21 22 22 22 22 22 22 23 23 24
22 19 18 18 18 18 18 18 18 18 18 18 18 17 17 17 17 16 16 16 15 15 15 15 15 15 16 17 18 18 19 19 19 20 21 22 22 22 23 23 24 24 25
23 22 20 20 20 20 20 20 20 20 19 19 19 19 19 18 18 18 18 17 17 17 17 17 17 17 17 18 18 19 20 20 20 20 21 22 22 23 24 25 25 25 26
27 25 23 22 22 22 23 22 22 21 21 21 22 21 21 21 20 20 20 20 19 19 19 18 18 19 19 19 19 19 20 21 22 22 23 23 24 24 25 26 26 27 28
29 28 26 25 24 25 25 25 24 24 23 24 24 24 24 24 23 22 22 21 21 21 21 21 21 20 20 20 21 21 22 22 23 23 24 24 24 25 27 28 28 29 29
31 30 30 28 27 27 27 27 27 27 26 26 26 26 26 25 24 24 24 24 24 23 24 24 24 23 23 23 23 23 24 24 25 25 25 26 26 27 28 28 29 30 30
34 33 32 30 29 29 30 29 29 29 29 29 29 28 28 27 27 26 26 26 26 26 26 26 26 26 25 25 25 26 26 26 26 26 27 27 28 28 28 29 30 30 31
36 36 34 33 32 32 32 31 31 32 32 32 31 30 30 30 30 29 29 29 29 28 28 28 28 28 28 28 28 28 29 29 29 29 29 29 29 30 30 31 32 32 32
39 39 37 36 35 35 35 34 34 34 34 33 33 32 32 32 32 32 32 32 32 31 30 30 29 29 29 29 30 30 31 31 31 31 32 32 32 32 32 33 33 33 33
42 41 40 39 39 39 39 37 36 36 35 35 34 34 34 34 34 34 34 34 34 33 32 31 31 31 31 31 31 32 32 32 32 33 33 33 34 34 34 34 34 35 34
44 44 43 42 42 40 40 39 38 38 37 36 36 36 35 36 36 35 35 35 35 34 33 32 32 33 33 33 33 33 33 33 33 34 35 35 35 35 35 35 36 36 35
Wind_Direction
7 8 11 11 13 15 16 15 10 10 6 8 14 13 358 239 227 228 227 227 226 224 222 222 222 223 226 228 233 239 237 241 243 242 245 247 255 255 255 258 257 255 258
3 6 8 10 10 11 14 15 12 11 7 4 4 1 340 291 260 231 224 229 232 228 224 228 228 227 228 231 234 240 243 246 244 242 244 249 254 256 255 257 259 260 261
356 1 4 5 6 8 11 11 9 7 4 0 355 350 341 301 267 250 240 238 235 234 234 232 233 230 231 232 234 241 245 249 249 246 246 249 253 255 258 260 261 262 261
354 356 1 2 2 5 7 8 7 6 3 359 352 342 326 303 282 269 249 241 238 238 234 228 229 230 232 234 238 242 247 252 254 252 250 253 255 257 260 263 260 259 260
351 354 355 359 0 2 4 4 4 4 5 2 355 343 331 308 296 283 262 246 238 239 234 229 228 230 235 237 239 243 248 252 257 256 254 256 258 259 261 263 265 263 261
348 348 350 353 357 359 1 3 2 -0 1 359 353 343 336 325 311 297 274 256 242 238 233 232 233 234 239 241 242 245 250 253 255 257 258 260 262 263 263 264 266 268 265
343 344 345 348 353 355 357 0 359 357 355 354 350 343 337 330 319 305 290 268 250 242 235 234 236 237 240 243 246 250 254 253 254 258 261 261 264 266 266 269 270 271 268
344 344 342 344 348 350 354 358 357 356 355 354 351 348 342 333 323 309 295 277 260 248 243 242 240 241 243 245 249 253 256 255 255 259 263 265 267 267 267 268 271 271 271
342 343 342 343 344 347 352 356 356 353 352 352 351 349 347 341 328 315 302 286 268 258 250 245 244 245 247 250 254 256 259 259 259 261 264 265 268 270 269 269 269 270 270
338 343 342 342 343 344 346 348 350 350 350 350 350 349 346 342 337 332 311 292 283 272 262 256 253 250 251 253 256 258 261 262 263 265 268 269 271 270 270 271 270 271 272
331 337 340 339 341 344 342 343 347 347 348 347 345 344 342 337 335 336 324 298 286 281 271 266 261 259 259 261 260 261 262 262 265 267 268 268 269 269 269 271 272 274 274
327 331 333 334 334 337 339 340 344 346 345 345 344 342 339 336 333 329 323 311 298 291 284 279 272 266 265 263 262 263 264 264 267 269 270 270 268 270 272 272 272 273 273
317 322 326 330 333 332 334 337 340 343 343 343 344 343 341 336 330 326 321 312 303 292 285 279 277 272 269 270 268 269 266 264 267 268 270 271 270 270 274 274 275 274 274
308 312 319 326 331 330 333 335 336 336 337 338 339 338 338 337 332 328 323 313 305 297 290 287 279 276 271 269 272 274 270 267 267 269 270 272 273 273 275 277 278 278 276
299 306 311 316 322 324 325 327 330 330 330 330 331 332 331 330 328 326 323 314 306 297 292 292 286 280 276 272 276 279 273 270 268 270 271 274 274 275 275 277 279 278 279
293 301 305 310 315 317 316 319 323 325 325 326 325 326 325 324 323 322 321 317 311 305 297 295 289 286 283 279 279 281 277 273 272 272 273 275 274 274 275 277 279 279 280
288 298 301 305 306 310 310 310 314 316 319 319 320 320 320 318 318 317 318 316 314 309 301 297 293 289 287 285 281 280 281 279 275 273 274 275 276 276 277 279 280 279 280
288 294 297 298 299 300 302 303 306 308 311 312 314 316 315 314 313 313 313 310 310 309 304 300 295 292 289 285 281 280 282 282 280 279 278 278 278 279 280 281 282 282 283
286 288 291 295 296 296 298 300 302 305 306 308 310 310 310 310 310 309 309 308 306 305 304 301 298 295 291 286 283 283 283 282 281 280 280 280 280 281 282 283 283 284 284
282 283 287 290 292 294 295 297 299 300 302 303 304 305 306 306 306 306 308 307 306 304 301 300 298 297 294 289 285 283 285 285 285 284 282 281 282 283 283 283 284 284 285
278 281 283 284 287 290 292 294 295 296 297 298 298 299 300 301 302 302 304 304 303 302 300 299 296 294 292 290 286 285 286 287 287 286 285 285 285 285 284 284 285 285 285
275 278 280 282 285 287 289 290 292 292 292 293 294 295 297 297 297 298 299 299 300 299 298 296 295 293 291 290 287 286 287 288 287 286 286 287 287 287 287 286 286 287 286
272 276 279 280 282 285 287 287 288 289 290 290 290 291 293 295 295 295 296 296 296 297 296 295 293 291 290 289 288 288 287 288 287 286 287 287 286 286 286 286 287 286 286
269 273 274 277 280 283 286 286 286 287 287 287 287 288 289 290 291 292 293 293 294 294 294 292 292 291 290 289 289 288 288 288 287 286 286 286 286 286 287 287 287 287 287
267 270 273 276 279 281 282 284 284 284 285 284 283 284 286 286 288 289 290 291 291 291 291 291 291 291 291 291 290 290 289 288 288 287 287 286 286 286 286 287 287 287 287
266 269 272 274 276 278 279 280 281 281 281 281 282 283 285 286 287 288 289 290 290 290 290 290 290 291 290 290 290 290 289 288 288 288 288 287 286 286 286 286 287 287 287
Height
5928 5925 5922 5920 5917 5915 5913 5911 5909 5906 5905 5903 5902 5901 5901 5901 5901 5901 5902 5903 5904 5905 5906 5907 5908 5909 5910 5911 5912 5912 5912 5912 5913 5913 5913 5913 5913 5913 5913 5913 5913 5912 5912
5928 5926 5923 5921 5918 5916 5913 5911 5908 5906 5905 5903 5902 5901 5900 5900 5899 5900 5900 5901 5902 5903 5904 5905 5907 5908 5908 5909 5910 5910 5911 5911 5911 5911 5911 5912 5913 5912 5912 5911 5911 5911 5910
5929 5926 5924 5921 5919 5916 5914 5911 5909 5907 5905 5903 5901 5900 5898 5898 5898 5898 5899 5899 5900 5901 5902 5903 5904 5905 5906 5907 5908 5908 5909 5909 5909 5909 5910 5910 5910 5910 5910 5909 5909 5909 5908
5929 5926 5924 5922 5919 5916 5914 5911 5909 5906 5904 5902 5901 5899 5898 5897 5897 5896 5897 5897 5898 5898 5899 5900 5902 5903 5904 5905 5906 5906 5907 5907 5907 5907 5907 5908 5908 5908 5907 5907 5907 5906 5906
5929 5926 5924 5921 5919 5916 5913 5911 5908 5906 5904 5902 5900 5898 5897 5896 5895 5895 5895 5895 5895 5896 5897 5898 5899 5900 5901 5902 5903 5903 5904 5904 5904 5905 5905 5905 5905 5905 5905 5904 5904 5904 5903
5928 5925 5923 5921 5918 5916 5913 5911 5908 5906 5904 5902 5899 5897 5896 5895 5894 5893 5893 5893 5893 5893 5894 5895 5897 5898 5899 5899 5900 5901 5901 5901 5901 5902 5902 5902 5902 5902 5902 5901 5901 5900 5900
5927 5925 5923 5921 5918 5916 5913 5911 5908 5905 5903 5901 5898 5896 5894 5893 5892 5891 5891 5891 5891 5891 5892 5893 5894 5895 5896 5896 5897 5897 5898 5898 5898 5898 5898 5898 5898 5898 5898 5898 5897 5897 5896
5926 5924 5922 5919 5917 5915 5913 5910 5907 5905 5902 5900 5897 5895 5893 5892 5891 5890 5889 5889 5889 5889 5889 5890 5891 5892 5893 5893 5894 5894 5894 5894 5894 5894 5894 5894 5894 5894 5894 5894 5893 5893 5892
5925 5923 5921 5918 5916 5914 5911 5909 5907 5905 5902 5899 5897 5894 5892 5890 5889 5888 5887 5887 5886 5886 5887 5887 5887 5888 5889 5890 5890 5890 5890 5890 5890 5891 5891 5890 5890 5890 5890 5889 5889 5889 5888
5923 5922 5920 5918 5915 5912 5910 5908 5906 5904 5901 5898 5896 5894 5891 5889 5888 5886 5885 5885 5884 5884 5884 5884 5884 5885 5885 5886 5886 5886 5886 5886 5886 5886 5887 5886 5886 5886 5885 5885 5884 5884 5883
5922 5920 5918 5916 5914 5912 5910 5907 5905 5903 5900 5897 5895 5893 5890 5889 5887 5885 5883 5883 5882 5882 5882 5881 5881 5882 5882 5882 5882 5882 5882 5882 5882 5882 5882 5882 5881 5881 5881 5880 5879 5878 5878
5920 5919 5917 5915 5912 5910 5908 5906 5904 5901 5899 5896 5894 5891 5890 5888 5886 5884 5882 5881 5880 5880 5879 5879 5878 5878 5878 5878 5878 5878 5878 5878 5878 5878 5877 5877 5876 5876 5875 5875 5874 5873 5872
5917 5916 5915 5913 5911 5908 5906 5904 5902 5900 5897 5895 5892 5890 5888 5886 5884 5882 5880 5879 5878 5877 5877 5876 5876 5875 5875 5874 5874 5874 5874 5874 5874 5873 5872 5872 5871 5871 5870 5869 5868 5867 5866
5914 5913 5912 5910 5909 5906 5904 5902 5900 5898 5896 5893 5891 5889 5887 5884 5882 5880 5878 5876 5875 5874 5873 5872 5872 5871 5871 5870 5870 5869 5869 5869 5868 5868 5867 5866 5866 5865 5864 5863 5862 5861 5860
5911 5910 5908 5907 5906 5904 5902 5900 5898 5896 5894 5891 5889 5887 5885 5882 5880 5878 5876 5874 5872 5871 5870 5869 5868 5867 5866 5866 5865 5864 5863 5863 5863 5862 5861 5861 5860 5859 5858 5857 5856 5854 5853
5907 5906 5905 5903 5902 5901 5899 5898 5896 5894 5891 5889 5887 5884 5882 5880 5878 5876 5873 5871 5869 5867 5866 5865 5864 5863 5862 5861 5860 5859 5858 5857 5857 5856 5855 5854 5853 5852 5851 5851 5849 5848 5846
5901 5901 5901 5900 5898 5897 5896 5894 5892 5890 5888 5886 5883 5881 5879 5877 5875 5873 5870 5868 5865 5863 5862 5861 5860 5858 5857 5856 5855 5854 5853 5852 5851 5850 5849 5848 5847 5846 5845 5844 5842 5841 5839
5896 5896 5896 5895 5894 5893 5891 5890 5888 5886 5884 5882 5879 5877 5875 5873 5871 5869 5866 5864 5862 5860 5858 5857 5855 5854 5852 5851 5850 5848 5847 5846 5845 5844 5842 5841 5840 5839 5837 5836 5835 5833 5831
5891 5891 5890 5890 5889 5888 5886 5885 5883 5881 5879 5877 5875 5873 5871 5869 5866 5864 5862 5860 5858 5856 5854 5852 5850 5849 5847 5845 5844 5842 5841 5840 5839 5837 5836 5834 5833 5832 5830 5829 5827 5826 5824
5885 5885 5884 5884 5883 5882 5880 5879 5877 5876 5874 5872 5870 5868 5866 5864 5861 5859 5857 5855 5853 5851 5849 5847 5845 5843 5841 5840 5838 5837 5835 5833 5832 5830 5828 5827 5825 5824 5822 5820 5819 5817 5815
5879 5879 5878 5877 5876 5875 5874 5873 5871 5870 5868 5866 5864 5862 5860 5858 5856 5854 5852 5850 5847 5845 5843 5841 5839 5837 5835 5833 5832 5830 5828 5826 5825 5823 5821 5819 5818 5816 5814 5812 5810 5808 5806
5872 5871 5870 5869 5868 5868 5867 5866 5864 5863 5861 5859 5857 5855 5854 5851 5849 5847 5845 5843 5841 5839 5837 5834 5832 5830 5829 5827 5824 5823 5821 5819 5817 5815 5813 5811 5809 5807 5805 5803 5801 5799 5797
5863 5863 5862 5861 5860 5859 5859 5858 5856 5855 5853 5851 5849 5848 5846 5844 5842 5840 5838 5836 5834 5831 5829 5827 5825 5823 5821 5819 5817 5815 5813 5811 5809 5807 5805 5803 5801 5798 5796 5794 5792 5790 5787
5853 5853 5852 5851 5851 5850 5850 5849 5847 5846 5844 5842 5841 5839 5838 5836 5834 5832 5830 5828 5826 5823 5821 5819 5817 5815 5813 5811 5809 5806 5804 5802 5800 5797 5795 5793 5791 5789 5787 5784 5782 5780 5777
5844 5843 5842 5843 5842 5841 5840 5839 5838 5836 5835 5833 5831 5830 5829 5827 5825 5823 5821 5819 5817 5814 5812 5810 5808 5806 5804 5802 5800 5797 5795 5792 5790 5788 5786 5783 5781 5779 5776 5774 5772 5769 5767
5834 5833 5833 5833 5832 5831 5830 5829 5828 5826 5825 5823 5822 5820 5819 5817 5815 5813 5811 5809 5807 5804 5802 5801 5799 5797 5795 5793 5790 5788 5785 5783 5781 5778 5776 5773 5771 5768 5766 5764 5761 5759 5757